This is the latest recevied weather packets stored in our database for station/object DL0BB-10. If no packets are shown the sender has not sent any weather packets the latest 10 day(s).
| Time | Temp. | Humidity | Pressure | Rain* | Wind** | Luminosity | Snow |
|---|---|---|---|---|---|---|---|
| 1787752772 | 26.67° C | 38% | 1015.8 hPa | - | - | - | - |
| 1787751872 | 26.67° C | 38% | 1016 hPa | - | - | - | - |
| 1787750972 | 25.56° C | 39% | 1016.1 hPa | - | - | - | - |
| 1787750072 | 26.11° C | 39% | 1016.3 hPa | - | - | - | - |
| 1787749172 | 26.11° C | 38% | 1016.5 hPa | - | - | - | - |
| 1787748272 | 26.11° C | 38% | 1016.7 hPa | - | - | - | - |
| 1787747372 | 25.56° C | 39% | 1016.6 hPa | - | - | - | - |
| 1787746471 | 25.56° C | 39% | 1016.9 hPa | - | - | - | - |
| 1787745571 | 25.56° C | 38% | 1017.1 hPa | - | - | - | - |
| 1787744670 | 25.56° C | 38% | 1017.1 hPa | - | - | - | - |
| 1787743770 | 25° C | 39% | 1017.2 hPa | - | - | - | - |
| 1787742870 | 25° C | 39% | 1017.3 hPa | - | - | - | - |
| 1787741970 | 25° C | 38% | 1017.4 hPa | - | - | - | - |
| 1787741070 | 25° C | 38% | 1017.5 hPa | - | - | - | - |
| 1787740170 | 24.44° C | 39% | 1017.7 hPa | - | - | - | - |
| 1787739269 | 24.44° C | 38% | 1017.8 hPa | - | - | - | - |
| 1787738368 | 25° C | 37% | 1017.9 hPa | - | - | - | - |
| 1787737468 | 24.44° C | 38% | 1018 hPa | - | - | - | - |
| 1787736568 | 23.89° C | 39% | 1018.1 hPa | - | - | - | - |
| 1787735668 | 23.89° C | 38% | 1018.2 hPa | - | - | - | - |
| 1787734767 | 24.44° C | 37% | 1018.1 hPa | - | - | - | - |
| 1787733870 | 24.44° C | 37% | 1018 hPa | - | - | - | - |
| 1787732970 | 23.89° C | 39% | 1017.7 hPa | - | - | - | - |
| 1787732070 | 23.89° C | 38% | 1017.6 hPa | - | - | - | - |
| 1787731170 | 24.44° C | 38% | 1017.7 hPa | - | - | - | - |
* Rain since midnight (hover to see other rain measurements)
** Current wind speed in m/s (hover to see current wind gust speed)